Theta_e
317 316 316 315 315 316 316 317 317 317 317 317 317 317 317 317 314 301 298 304 309 319 319 303 298 297 295 293 295 298 289 286 288 289 291 294 292 296 295 295 294 302 298 303 314
316 315 315 315 315 315 316 316 316 316 317 317 317 317 317 316 303 296 306 314 315 319 301 297 294 295 289 291 294 294 287 289 292 293 291 290 289 290 290 290 290 296 297 296 297
316 315 315 314 314 315 315 316 316 316 316 317 316 316 316 311 296 294 311 314 315 310 301 299 295 294 289 290 292 291 289 291 290 290 290 289 288 289 286 286 289 290 290 293 294
316 315 315 315 314 315 315 315 316 316 316 316 315 316 317 302 287 297 313 313 313 303 300 297 295 290 288 287 290 287 290 290 292 292 289 287 288 287 287 288 290 290 290 290 293
316 315 315 314 315 315 315 315 315 316 316 315 316 316 304 292 290 301 311 307 302 301 297 295 292 291 287 287 288 286 288 290 291 290 289 289 287 287 287 290 291 291 292 290 289
315 315 315 314 314 315 315 315 315 315 315 314 314 314 298 288 299 300 300 301 300 299 296 296 293 294 290 287 285 288 289 288 289 289 289 287 286 285 287 288 290 291 290 289 290
315 315 315 314 314 314 315 315 315 315 314 314 313 307 292 291 297 298 299 298 298 298 295 296 296 292 291 287 291 290 286 285 286 287 286 285 283 283 286 288 288 289 289 290 290
315 315 314 314 314 314 314 314 312 312 312 313 312 301 287 298 296 298 299 297 300 299 298 298 298 295 291 291 288 283 282 278 282 285 286 284 277 284 286 286 287 289 289 289 289
314 314 314 314 314 314 314 313 313 312 312 311 297 292 287 302 295 297 296 295 297 296 296 299 296 289 286 282 279 278 274 276 279 284 285 283 279 285 287 287 287 288 288 288 289
314 314 314 314 313 314 314 312 311 306 303 303 298 287 290 289 295 296 296 297 294 293 292 291 286 281 279 277 272 275 275 277 276 281 283 281 281 285 286 286 285 286 287 286 287
315 314 314 314 313 314 307 295 289 289 291 287 288 289 291 295 297 294 296 294 293 288 281 285 281 277 277 279 279 278 279 277 279 283 281 280 280 283 285 284 283 284 284 286 287
315 314 314 314 313 313 299 291 290 289 282 292 291 291 294 293 289 291 296 288 286 281 282 280 279 281 283 283 281 280 278 274 279 283 281 279 280 283 284 283 284 285 285 285 287
316 314 314 313 312 300 295 293 300 295 282 287 290 291 291 292 287 288 291 289 283 281 280 277 281 284 282 280 279 279 277 277 277 281 279 279 275 278 282 283 285 286 286 287 286
316 314 314 312 301 297 293 299 299 293 278 282 284 289 291 290 285 293 291 288 285 280 280 279 283 282 280 279 280 277 280 280 280 275 266 278 266 276 278 281 284 285 284 284 286
315 314 313 310 297 293 297 299 296 290 273 284 284 292 290 286 286 287 291 288 281 281 279 278 280 280 279 280 282 279 281 280 280 271 267 267 265 273 277 279 281 283 284 285 285
315 314 312 306 299 299 298 294 290 280 274 280 284 282 283 285 285 286 286 289 287 283 282 278 283 282 281 282 282 283 280 277 277 269 262 268 269 272 274 277 279 282 284 285 286
315 313 308 305 297 300 298 290 282 277 282 278 279 281 281 281 282 282 281 280 278 273 275 279 281 282 283 279 282 280 274 264 264 261 266 273 265 274 278 279 279 281 282 284 285
314 312 308 304 302 300 294 286 277 277 275 281 281 281 278 281 280 280 279 276 279 276 273 272 272 280 283 279 278 277 275 265 260 263 265 273 267 275 280 282 282 283 283 283 285
313 305 303 301 303 300 291 277 280 281 283 279 279 276 276 280 278 277 276 275 279 280 274 273 274 281 281 281 279 277 274 277 264 259 262 266 272 277 281 281 280 281 281 282 283
302 300 298 303 303 296 285 281 282 284 283 280 278 279 272 275 273 273 275 279 280 283 281 277 272 278 280 281 281 279 281 271 266 260 259 265 265 273 277 278 279 279 280 282 284
300 293 297 302 299 289 281 279 284 286 286 282 278 278 278 277 276 271 274 279 282 281 282 278 275 274 279 277 275 276 275 276 273 269 263 262 270 275 277 278 278 279 281 282 283
297 286 295 299 286 285 280 282 288 284 287 285 283 281 279 280 278 274 273 277 283 282 279 281 275 268 273 276 278 278 276 276 267 265 269 268 271 280 279 279 279 281 282 283 284
290 286 294 293 282 281 282 283 284 282 283 283 282 283 282 281 279 277 275 281 283 281 278 281 270 263 270 274 278 276 278 279 275 273 268 264 271 279 279 282 283 280 282 283 284
288 283 284 286 286 284 282 281 280 286 283 285 284 283 282 280 281 278 277 282 283 279 287 283 272 271 271 272 275 274 276 278 276 266 272 273 275 280 281 280 280 281 282 283 283
290 286 283 280 283 284 285 283 281 281 285 285 283 282 282 279 280 278 280 280 282 286 282 279 268 271 271 273 274 275 275 275 275 276 270 275 274 277 279 279 280 281 282 281 281
286 285 285 284 283 284 285 284 282 282 282 281 282 283 283 281 282 278 280 280 280 280 280 278 266 268 266 270 271 271 274 275 275 275 275 275 274 280 281 281 279 280 281 279 281
294 292 289 287 280 283 283 284 286 285 285 286 284 284 281 283 287 285 284 283 282 281 280 278 270 263 264 267 265 267 270 274 274 274 274 271 276 277 276 277 279 278 280 279 281
Wind_Speed
10 11 11 12 12 12 12 12 12 12 13 14 15 14 15 14 8 5 7 4 7 14 12 8 3 4 3 2 1 3 4 3 5 4 3 5 6 4 4 4 4 4 3 2 6
11 12 13 13 13 13 13 14 14 14 14 15 16 16 15 13 1 7 3 12 12 13 4 5 5 7 3 1 2 4 4 8 2 1 3 6 2 4 4 5 5 3 2 6 6
9 11 11 11 12 12 12 13 13 14 14 15 16 17 17 7 1 2 10 15 13 10 3 2 2 1 3 2 3 2 4 2 0 2 5 5 6 2 3 6 8 4 7 8 9
8 10 11 12 12 12 12 12 13 13 15 16 16 15 15 2 2 3 13 13 10 7 4 5 6 4 3 2 4 1 1 1 2 0 4 5 3 6 7 8 3 7 8 3 3
8 9 11 12 12 12 13 12 12 12 13 14 14 14 5 3 1 4 11 9 4 5 7 4 6 1 3 2 4 1 3 4 3 7 6 5 7 7 8 10 9 7 5 7 5
8 9 11 13 14 14 14 13 12 12 12 12 12 10 1 0 3 6 8 4 5 5 7 7 2 1 4 2 1 3 5 9 4 4 3 3 5 4 6 1 7 8 10 8 9
8 9 11 13 14 15 15 15 14 13 13 11 10 3 2 1 2 6 7 2 3 3 3 3 1 3 1 1 2 2 5 6 1 3 3 2 10 9 7 4 9 10 10 11 12
7 8 10 12 14 15 15 15 15 15 12 9 8 2 2 2 1 4 6 4 6 3 2 1 1 3 2 1 5 5 4 6 2 6 1 6 11 9 7 4 12 16 15 12 13
7 8 10 12 14 15 15 17 16 11 9 5 1 2 3 2 2 4 1 3 6 2 1 0 3 3 6 3 5 7 3 4 10 2 6 3 10 14 8 8 16 14 14 13 12
7 8 9 11 13 15 16 17 7 4 2 1 1 2 2 2 3 4 3 3 1 3 2 5 5 3 4 5 2 3 4 5 7 4 4 10 21 20 14 8 13 13 13 10 10
8 8 10 11 12 13 10 5 6 3 5 2 1 3 3 5 2 1 3 4 1 4 2 3 5 1 4 2 3 1 4 7 6 5 6 8 15 24 21 9 11 11 9 9 9
9 7 8 11 12 12 3 4 2 1 7 2 1 1 1 2 3 1 5 1 0 2 1 5 1 4 4 3 2 4 5 7 6 2 5 10 23 24 16 7 7 7 9 9 6
10 8 6 7 10 4 2 3 1 1 1 3 1 1 1 2 2 3 3 0 1 2 2 3 1 5 3 1 3 4 5 2 5 7 2 11 11 7 5 4 6 8 8 5 7
11 9 6 4 4 2 2 3 3 3 5 3 1 1 1 2 2 1 2 1 2 2 2 3 2 5 3 4 5 4 4 1 5 7 2 7 11 9 1 10 7 9 7 6 8
11 9 5 2 1 0 1 3 3 3 5 1 2 0 2 1 2 1 0 2 2 2 5 1 5 4 4 4 5 4 1 3 1 3 5 6 4 12 3 8 10 8 7 8 7
12 10 7 2 2 3 2 3 3 8 8 1 1 1 2 0 1 2 2 3 2 2 0 5 2 4 4 2 1 2 3 5 4 4 3 5 6 8 5 7 4 4 6 8 10
9 14 6 2 2 2 0 4 5 5 3 4 2 1 1 2 1 1 2 1 4 3 2 2 4 2 2 2 2 3 6 7 9 6 8 5 2 16 9 8 6 8 11 11 11
14 18 6 3 3 3 3 6 4 3 6 1 2 3 3 3 2 1 1 3 4 2 2 3 6 6 3 4 6 3 6 7 6 4 8 2 10 10 8 6 7 9 9 9 11
16 3 4 4 5 3 6 3 8 7 2 5 2 2 3 1 1 1 6 5 6 9 8 4 5 2 2 2 4 4 3 3 4 1 3 5 9 13 14 9 6 8 5 11 11
3 3 2 4 7 4 4 4 5 2 3 3 6 6 6 4 2 3 4 4 4 7 3 3 3 1 1 2 4 3 7 5 4 4 8 8 8 13 6 7 8 7 9 14 17
3 3 1 4 3 4 5 9 7 4 3 3 3 2 5 6 6 4 6 3 4 4 5 4 4 2 1 6 8 4 3 3 4 5 5 6 11 10 9 7 9 8 11 17 19
3 2 2 2 2 1 4 8 8 7 4 2 2 3 7 5 6 5 8 6 6 8 8 6 5 4 9 1 1 4 6 7 6 6 5 3 18 4 7 6 3 14 19 20 19
2 2 1 1 6 5 3 4 3 5 5 10 11 8 2 4 4 6 3 3 5 7 9 7 2 3 8 5 2 4 6 5 3 3 11 5 16 3 2 14 21 17 18 20 19
4 3 1 1 0 3 6 5 5 4 4 5 2 3 3 2 5 4 3 2 1 3 4 7 4 8 8 6 4 5 6 10 10 4 10 18 34 31 25 24 24 21 19 20 19
4 5 7 7 10 8 6 8 7 9 6 5 3 13 13 6 4 8 6 2 2 3 3 4 6 3 4 5 5 11 12 13 18 23 12 35 18 29 27 28 24 21 20 18 20
3 4 1 1 0 17 11 12 13 4 10 6 13 4 14 10 16 8 8 6 6 3 5 2 4 3 6 4 4 12 16 21 24 24 24 30 37 27 30 24 16 16 16 18 19
3 1 3 8 6 9 16 23 17 11 12 8 19 9 15 28 14 4 2 1 2 7 10 6 5 3 8 4 9 11 15 21 8 8 12 16 19 8 9 10 13 11 18 15 19
Wind_Direction
8 360 356 354 354 354 351 350 348 350 349 348 349 352 348 346 338 25 41 292 324 325 327 300 349 341 63 65 104 120 75 207 244 190 267 8 13 334 292 265 341 333 125 3 318
1 359 358 355 351 350 349 348 349 347 347 348 345 345 346 344 15 44 292 339 338 338 5 12 348 358 35 58 26 100 142 216 263 10 322 318 10 300 335 323 298 246 237 341 341
354 353 354 354 349 345 345 342 342 342 342 343 342 339 338 341 61 349 334 341 340 343 197 200 242 84 74 52 11 163 201 233 18 61 6 307 307 263 225 262 229 269 295 310 303
338 343 345 344 341 339 339 339 339 340 342 341 338 335 330 351 114 302 337 341 344 355 44 30 31 38 71 62 348 271 44 99 258 14 329 277 286 272 218 243 237 288 280 259 289
328 332 338 338 336 334 335 335 335 336 337 340 338 336 353 34 3 319 337 344 8 7 41 48 56 75 102 340 343 22 317 300 257 283 242 280 259 261 263 257 282 292 316 307 301
321 326 332 336 334 333 331 329 327 328 330 337 342 338 30 336 318 348 341 355 22 34 22 33 109 153 99 67 79 320 301 292 301 312 326 307 277 13 277 19 302 321 307 291 295
319 321 326 331 331 327 325 324 322 321 323 330 345 21 32 124 342 321 5 313 11 43 46 27 350 67 101 88 337 311 329 317 195 18 349 304 297 228 265 319 307 308 304 303 293
310 312 317 324 326 323 321 321 319 311 308 313 339 33 233 325 305 353 347 340 354 28 67 292 12 104 52 303 23 30 44 353 11 15 348 71 275 275 276 323 298 299 297 293 282
297 307 312 319 324 323 322 316 306 295 293 307 60 84 260 334 14 312 355 325 318 3 313 254 73 77 22 64 22 16 315 312 321 352 354 57 277 267 290 306 285 288 286 283 285
288 298 306 316 326 327 323 312 299 338 38 97 323 21 302 240 292 334 330 346 323 311 33 51 51 77 36 52 215 296 310 274 248 271 10 281 266 279 279 258 274 281 277 278 280
272 291 305 316 327 334 347 2 18 343 50 203 291 296 323 296 254 352 17 337 298 41 70 16 63 170 159 118 119 188 246 248 261 275 317 266 281 287 294 280 273 268 262 267 272
245 262 290 313 325 331 72 58 48 212 312 208 260 273 334 349 327 339 7 177 83 145 105 32 197 177 134 134 174 233 257 272 286 298 319 301 293 279 281 251 217 248 280 278 300
224 239 261 304 321 8 80 120 114 84 274 298 233 212 288 23 277 300 22 167 95 108 64 154 128 130 128 219 243 227 207 250 237 328 310 324 309 317 325 278 256 258 244 272 261
214 214 230 302 336 296 338 141 105 103 55 247 247 19 46 51 279 335 5 41 62 185 134 229 142 166 176 235 165 279 174 300 313 20 291 58 285 295 277 290 263 275 287 280 290
214 211 190 153 254 323 264 116 113 61 0 61 240 219 93 147 319 339 351 40 151 152 103 305 168 188 216 227 184 233 344 292 266 100 40 327 77 268 313 278 272 265 253 292 304
206 172 130 83 7 302 107 78 48 42 256 340 74 300 112 115 246 304 44 65 95 93 58 245 302 192 209 149 234 335 340 59 55 84 356 220 140 265 230 213 243 268 318 293 285
221 134 105 92 340 325 17 42 26 162 354 272 222 140 299 219 278 56 19 320 178 56 299 239 200 184 162 123 38 74 45 339 345 3 229 162 53 248 257 247 241 272 287 296 286
147 145 151 116 122 356 15 48 179 261 229 10 133 115 216 158 257 11 44 280 212 105 117 128 312 183 183 203 162 90 117 151 258 279 281 316 236 248 216 257 247 258 261 279 278
156 119 136 164 130 74 79 152 209 209 131 143 55 128 270 205 179 357 211 217 215 172 173 127 283 88 216 176 131 136 129 128 91 158 351 243 281 284 269 261 218 267 306 285 280
104 97 34 152 132 79 101 231 261 247 104 78 210 161 206 199 127 130 202 196 202 184 135 174 323 33 84 92 46 117 146 71 13 307 290 276 270 239 253 245 277 285 294 293 290
93 108 340 96 17 77 188 207 238 233 142 189 256 254 221 188 184 217 231 252 183 125 100 129 118 279 37 202 174 135 165 113 126 166 213 298 270 215 223 218 254 275 288 297 295
131 168 22 318 118 204 201 188 197 169 129 18 323 246 208 190 197 240 226 228 173 149 163 186 145 231 221 61 99 150 181 152 146 236 239 216 270 188 210 197 256 309 308 304 299
106 93 43 352 199 194 261 291 215 173 168 177 206 197 166 214 260 210 231 310 180 164 160 184 247 359 339 1 36 210 185 178 117 96 215 162 264 202 238 305 312 305 306 301 302
137 168 296 258 340 202 167 203 222 221 227 173 188 92 112 261 173 276 292 320 231 189 165 123 172 187 197 193 136 205 194 203 192 180 262 225 274 279 294 299 306 307 301 301 302
158 229 181 190 224 207 189 178 193 208 204 164 216 213 178 210 219 239 212 297 333 256 78 142 216 194 274 236 220 241 240 221 215 228 233 272 251 279 291 295 299 300 298 305 310
201 169 234 202 320 194 204 214 209 148 158 197 229 195 214 215 203 196 173 186 210 157 162 186 262 91 285 298 276 265 248 243 238 245 254 262 277 267 273 283 288 291 307 312 309
193 267 139 227 189 184 216 232 224 175 218 188 206 202 203 225 219 164 138 122 84 180 180 170 148 90 268 332 321 291 229 227 183 204 216 228 246 266 270 281 283 294 313 305 312